[[{"header":{"parameterUnit":"m.s-1","parameterCategory":1,"la1":30.2991,"la2":30.254,"lo1":-89.0895,"lo2":-89.0444,"dy":0.0017,"dx":0.0017,"nx":28,"ny":28,"refTime":"2023-09-02T21:00:00:Z","depth":0,"parameterNumber":2,"parameterNumberName":"U-component_of_WINDS"},"data":[0,0,0,0,0,0,0,0,0,0,0,0,0,0,0,0,0,0,0,0,0,0,0,0,0,0,0,0,0,0,0,0,0,0,0,0,0,0,0,0,0,0,0,0,0,0,0,0,0,0,0,0,0,0,0,0,0,0,-2.4211,-2.4212,0,-2.4306,-2.4307,-2.4308,-2.4309,-2.4308,-2.4307,-2.4306,-2.4398,-2.4402,-2.4405,0,0,0,0,0,0,0,0,0,0,0,0,0,-2.4028,-2.4032,-2.4211,-2.4212,-2.4213,-2.4305,-2.4307,-2.4308,-2.4309,-2.4308,-2.4306,-2.4305,-2.4397,-2.4401,-2.4405,0,0,0,0,0,0,0,0,0,0,0,0,0,-2.4113,-2.4033,-2.4211,-2.4225,-2.4227,-2.4305,-2.4307,-2.4308,-2.431,-2.4308,-2.4306,-2.4304,-2.4396,-2.4401,-2.4406,-2.4474,0,0,-2.4422,-2.4425,0,0,0,0,0,0,0,0,-2.4109,-2.412,-2.4222,-2.4224,-2.4227,-2.4294,-2.4276,-2.4364,-2.431,-2.4278,-2.4306,-2.4304,-2.4365,-2.4372,-2.4394,-2.4479,-2.4483,-2.4423,-2.4426,-2.4428,-2.443,0,0,0,0,0,0,0,-2.4103,-2.4116,-2.4248,-2.4223,-2.4227,-2.4226,-2.4236,-2.4293,-2.433,-2.4281,-2.4281,-2.4293,-2.4366,-2.4389,-2.4396,-2.4484,-2.4423,-2.4427,-2.4431,-2.4433,-2.4629,-2.4631,0,0,0,0,0,0,-2.4094,-2.4111,-2.4245,-2.4251,-2.4162,-2.4231,-2.4242,-2.4274,-2.4329,-2.4336,-2.4294,-2.4292,-2.438,-2.439,-2.4399,-2.4482,-2.4428,-2.4433,-2.4436,-2.4627,-2.4629,-2.4631,0,0,0,0,0,0,-2.4091,-2.4106,-2.4241,-2.4181,-2.4198,-2.4236,-2.4272,-2.4277,-2.43,-2.4339,-2.4346,-2.4311,-2.4379,-2.4392,-2.4456,-2.4485,-2.4436,-2.4441,-2.4624,-2.4627,-2.463,-2.4648,0,0,0,0,0,0,-2.4085,-2.4105,-2.4132,-2.4182,-2.4202,-2.4297,-2.4274,-2.428,-2.431,-2.4308,-2.4357,-2.4363,-2.4379,-2.4448,-2.4461,-2.4492,-2.4445,-2.4622,-2.4626,-2.4629,-2.4645,-2.4652,-2.4657,0,0,0,0,0,-2.4079,-2.4133,-2.4133,-2.415,-2.4237,-2.4299,-2.431,-2.4328,-2.4312,-2.4339,-2.4364,-2.4362,-2.448,-2.4454,-2.4469,-2.4502,-2.462,-2.4625,-2.4629,-2.4643,-2.465,-2.4657,0,0,0,0,0,0,-2.4084,-2.4139,-2.4141,-2.4213,-2.4252,-2.4299,-2.4334,-2.4336,-2.4379,-2.4376,-2.4395,-2.4406,-2.447,-2.4493,-2.4463,-2.4571,-2.4548,-2.4556,-2.4553,-2.4561,-2.4567,-2.4559,-2.4449,0,0,0,0,0,-2.4094,-2.4141,-2.4187,-2.4246,-2.4265,-2.4296,-2.4324,-2.4335,-2.4375,-2.4391,-2.4421,-2.4459,-2.4505,-2.4534,-2.4579,-2.4649,-2.4659,-2.4679,-2.4685,-2.469,-2.4695,-2.4733,-2.4742,-2.4646,-2.4646,-2.4646,0,0,-2.4113,-2.415,-2.4178,-2.4248,-2.4279,-2.4326,-2.431,-2.4361,-2.4396,-2.4398,-2.4461,-2.4484,-2.4528,-2.4595,-2.4626,-2.4616,-2.4725,-2.4695,-2.4699,-2.4702,-2.4739,-2.4748,-2.4756,-2.4649,-2.4649,-2.4648,0,0,-2.4174,-2.4207,-2.4259,-2.4291,-2.4339,-2.436,-2.4372,-2.442,-2.4436,-2.45,-2.4503,-2.4544,-2.4623,-2.4654,-2.468,-2.4753,-2.4751,-2.4767,-2.4797,-2.4833,-2.4841,-2.4848,-2.4873,-2.4881,-2.4773,-2.4773,-2.4773,0,-2.4192,-2.4265,-2.4285,-2.4337,-2.4367,-2.4373,-2.4426,-2.4455,-2.4515,-2.4535,-2.4523,-2.4622,-2.4652,-2.4726,-2.4744,-2.4765,-2.4779,-2.476,-2.4839,-2.4846,-2.4852,-2.4876,-2.4885,-2.4774,-2.4774,-2.4774,-2.4774,0,-2.4284,-2.4335,-2.4371,-2.443,-2.4464,-2.4516,-2.4543,-2.4575,-2.4583,-2.4605,-2.4668,-2.4705,-2.4756,-2.4775,-2.4783,-2.4851,-2.4843,-2.4835,-2.4812,-2.4862,-2.4885,-2.4894,-2.4776,-2.4776,-2.4775,-2.4775,0,0,-2.4349,-2.4419,-2.4432,-2.4459,-2.4513,-2.4551,-2.4603,-2.4655,-2.4681,-2.4722,-2.4765,-2.4832,-2.4825,-2.4855,-2.4866,-2.4899,-2.4953,-2.4887,-2.4888,-2.4896,-2.5028,-2.5033,-2.5043,-2.4953,-2.4955,-2.4957,-2.5024,0,-2.4414,-2.4507,-2.4527,-2.4607,-2.4653,-2.466,-2.4705,-2.4742,-2.4764,-2.4806,-2.4829,-2.4876,-2.4864,-2.4882,-2.4914,-2.494,-2.4979,-2.4935,-2.4992,-2.4993,-2.4979,-2.5055,-2.506,-2.5122,-2.5033,-2.5035,-2.5036,0,-2.4502,-2.4546,-2.4631,-2.4679,-2.4699,-2.4739,-2.4788,-2.4828,-2.487,-2.4883,-2.4917,-2.4926,-2.4978,-2.4955,-2.5027,-2.4996,-2.5021,-2.5037,-2.5039,-2.5044,-2.5016,-2.506,-2.5142,-2.515,-2.505,-2.5049,-2.5048,0,-2.4538,-2.4619,-2.468,-2.4703,-2.4761,-2.4789,-2.4814,-2.4854,-2.4884,-2.4927,-2.4946,-2.4994,-2.502,-2.5056,-2.5077,-2.5058,-2.5147,-2.5125,-2.5158,-2.5158,-2.5175,-2.5173,-2.526,-2.5194,-2.5194,-2.5193,-2.5193,0,-2.4608,-2.4659,-2.4698,-2.4735,-2.4792,-2.4815,-2.4871,-2.4895,-2.4932,-2.4973,-2.4982,-2.5021,-2.5047,-2.5088,-2.5105,-2.5161,-2.5173,-2.5184,-2.5188,-2.5182,-2.5181,-2.5197,-2.5193,-2.5196,-2.5195,-2.5195,-2.5194,0,-2.4658,-2.4686,-2.4753,-2.4803,-2.4816,-2.4856,-2.4898,-2.4934,-2.4956,-2.5008,-2.5022,-2.5056,-2.5106,-2.5131,-2.5192,-2.5203,-2.5267,-2.5268,-2.5253,-2.5254,-2.5284,-2.5281,-2.5384,-2.5398,-2.5323,-2.5324,-2.5325,0,-2.4699,-2.4739,-2.4793,-2.4822,-2.4848,-2.4895,-2.4926,-2.495,-2.4982,-2.5033,-2.5062,-2.5113,-2.5154,-2.5233,-2.5263,-2.5309,-2.5311,-2.5344,-2.5318,-2.5311,-2.531,-2.5306,-2.531,-2.5348,-2.5349,-2.5349,-2.535,0,-2.477,-2.4782,-2.4827,-2.4877,-2.4914,-2.4954,-2.4994,-2.5016,-2.5047,-2.5082,-2.5133,-2.5166,-2.5229,-2.5278,-2.5328,-2.5352,-2.5355,-2.5358,-2.5368,-2.5362,-2.5351,-2.5356,-2.5263,-2.5355,-2.5355,-2.5354,-2.5354,-2.5354,-2.4816,-2.4851,-2.4895,-2.4945,-2.4977,-2.5014,-2.505,-2.5078,-2.5122,-2.5176,-2.5187,-2.5242,-2.5282,-2.5349,-2.5375,-2.5417,-2.541,-2.5424,-2.5428,-2.5431,-2.5431,-2.5346,-2.5426,-2.5426,-2.5426,-2.5426,-2.5426,0,-2.4885,-2.4914,-2.496,-2.5015,-2.5054,-2.5057,-2.51,-2.5132,-2.518,-2.5219,-2.526,-2.5319,-2.5367,-2.5401,-2.545,-2.5477,-2.5479,-2.5488,-2.5486,-2.5491,-2.5436,-2.5422,-2.5485,-2.5485,-2.5485,-2.5485,-2.5485,-2.5485,-2.4926,-2.4986,-2.5003,-2.5079,-2.5107,-2.5161,-2.5186,-2.522,-2.5251,-2.5317,-2.5357,-2.538,-2.5416,-2.5468,-2.5512,-2.552,-2.5537,-2.5546,-2.5554,-2.5501,-2.5495,-2.5489,-2.5476,-2.555,-2.555,-2.5606,-2.5606,-2.5607]},{"header":{"parameterUnit":"m.s-1","parameterCategory":1,"la1":30.2991,"la2":30.254,"lo1":-89.0895,"lo2":-89.0444,"dy":0.0017,"dx":0.0017,"nx":28,"ny":28,"refTime":"2023-09-02T21:00:00:Z","depth":0,"parameterNumber":3,"parameterNumberName":"V-component_of_WINDS"},"data":[0,0,0,0,0,0,0,0,0,0,0,0,0,0,0,0,0,0,0,0,0,0,0,0,0,0,0,0,0,0,0,0,0,0,0,0,0,0,0,0,0,0,0,0,0,0,0,0,0,0,0,0,0,0,0,0,0,0,2.3186,2.3187,0,2.3252,2.3253,2.3254,2.3224,2.3222,2.3221,2.3219,2.3284,2.3288,2.3291,0,0,0,0,0,0,0,0,0,0,0,0,0,2.3034,2.3037,2.3186,2.3187,2.3188,2.3252,2.3253,2.3254,2.3224,2.3222,2.322,2.3218,2.3283,2.3287,2.3291,0,0,0,0,0,0,0,0,0,0,0,0,0,2.31,2.3038,2.3186,2.3181,2.3181,2.3252,2.3253,2.3254,2.3224,2.3222,2.322,2.3217,2.3282,2.3287,2.3292,2.3371,0,0,2.3307,2.3309,0,0,0,0,0,0,0,0,2.3096,2.3105,2.3181,2.3181,2.3182,2.3227,2.3223,2.3293,2.3225,2.3208,2.3219,2.3216,2.3267,2.3273,2.3291,2.3374,2.3377,2.3307,2.331,2.3312,2.3314,0,0,0,0,0,0,0,2.3091,2.3102,2.3212,2.3182,2.3183,2.3175,2.3182,2.3236,2.325,2.3209,2.3207,2.3216,2.3267,2.3286,2.3292,2.3378,2.3307,2.3311,2.3314,2.3316,2.3529,2.3532,0,0,0,0,0,0,2.3087,2.3099,2.321,2.3214,2.3132,2.318,2.3187,2.3215,2.325,2.3253,2.3218,2.3214,2.3279,2.3287,2.3294,2.3389,2.3312,2.3317,2.332,2.3526,2.353,2.3533,0,0,0,0,0,0,2.3084,2.3097,2.3208,2.3156,2.3169,2.3185,2.3217,2.3218,2.3237,2.3256,2.3258,2.3235,2.3277,2.3288,2.3352,2.3391,2.3319,2.3323,2.3523,2.3527,2.3531,2.3579,0,0,0,0,0,0,2.308,2.3096,2.3127,2.3157,2.3172,2.3265,2.3219,2.3221,2.3246,2.3241,2.3273,2.3276,2.3276,2.3345,2.3357,2.3396,2.3327,2.352,2.3525,2.353,2.3574,2.3584,2.3593,0,0,0,0,0,2.3074,2.3137,2.3129,2.3142,2.3211,2.3267,2.3276,2.3276,2.3249,2.3279,2.3292,2.3275,2.3385,2.3352,2.3365,2.3406,2.3517,2.3524,2.353,2.357,2.3582,2.3593,0,0,0,0,0,0,2.3111,2.3141,2.3132,2.3207,2.3235,2.3262,2.33,2.3289,2.3325,2.3319,2.3318,2.3325,2.3392,2.3406,2.3368,2.3485,2.3447,2.3456,2.3473,2.3485,2.3494,2.3489,2.3331,0,0,0,0,0,2.3128,2.3171,2.3195,2.3259,2.3274,2.3285,2.3309,2.3307,2.3336,2.3347,2.3364,2.3392,2.3433,2.346,2.3499,2.3577,2.3583,2.3612,2.3621,2.3629,2.3636,2.3678,2.3691,2.3553,2.3553,2.3553,0,0,2.3163,2.3185,2.3212,2.3267,2.3288,2.3333,2.3295,2.3344,2.3376,2.3354,2.3416,2.343,2.3461,2.3533,2.3565,2.3547,2.3676,2.3637,2.3643,2.3646,2.3685,2.3698,2.371,2.3557,2.3556,2.3555,0,0,2.3249,2.327,2.3325,2.3348,2.3381,2.3388,2.3402,2.3431,2.344,2.3502,2.3487,2.3526,2.3597,2.3619,2.364,2.3736,2.3721,2.3749,2.3798,2.3838,2.3849,2.3859,2.3892,2.3904,2.3757,2.3757,2.3757,0,2.3287,2.3355,2.3355,2.3405,2.3429,2.3413,2.3468,2.349,2.3534,2.3551,2.353,2.3619,2.3639,2.3715,2.3738,2.3756,2.3771,2.3745,2.3848,2.3857,2.3866,2.3898,2.3911,2.376,2.3759,2.3759,2.3759,0,2.34,2.3447,2.3488,2.3531,2.356,2.3613,2.3621,2.365,2.3646,2.3656,2.3719,2.3743,2.3786,2.3805,2.3801,2.3881,2.3868,2.3848,2.3809,2.3883,2.3912,2.3925,2.3764,2.3763,2.3762,2.3761,0,0,2.3509,2.3554,2.3568,2.3588,2.3624,2.366,2.3712,2.3755,2.378,2.3811,2.3854,2.3915,2.3897,2.392,2.3919,2.3955,2.4029,2.393,2.3931,2.3947,2.4118,2.4131,2.4146,2.402,2.4022,2.4024,2.4115,0,2.3597,2.3689,2.3691,2.3774,2.3817,2.3803,2.3848,2.3875,2.3885,2.3923,2.3934,2.3977,2.395,2.3964,2.4,2.4012,2.4063,2.4006,2.4059,2.4061,2.405,2.4161,2.4176,2.426,2.4126,2.4128,2.413,0,2.3711,2.3747,2.3835,2.3865,2.3883,2.3924,2.3963,2.4,2.403,2.4035,2.4063,2.4056,2.4109,2.407,2.4142,2.4104,2.4126,2.4136,2.4139,2.4143,2.4099,2.4167,2.4287,2.4299,2.4148,2.4147,2.4145,0,2.3781,2.3851,2.3912,2.393,2.3967,2.3995,2.4012,2.404,2.4066,2.4101,2.4117,2.4158,2.4179,2.4211,2.4215,2.4187,2.4288,2.425,2.4293,2.4293,2.4313,2.4312,2.4437,2.433,2.433,2.433,2.4329,0,2.3878,2.3932,2.3944,2.3982,2.4042,2.4044,2.4104,2.4118,2.4143,2.4183,2.4173,2.4211,2.4215,2.4254,2.4259,2.4317,2.4328,2.4333,2.4333,2.4333,2.4332,2.4346,2.434,2.4333,2.4332,2.4332,2.4331,0,2.3965,2.3975,2.4041,2.4071,2.408,2.4123,2.4148,2.4184,2.4194,2.4245,2.4257,2.4273,2.4318,2.4326,2.4379,2.4382,2.4452,2.4447,2.4442,2.4441,2.4483,2.4479,2.4621,2.464,2.4522,2.4523,2.4524,0,2.4025,2.4066,2.4101,2.4127,2.4145,2.4188,2.4214,2.4219,2.4247,2.4285,2.4316,2.4361,2.4396,2.4469,2.4485,2.4526,2.4521,2.4568,2.4527,2.4525,2.452,2.4517,2.4521,2.4575,2.4577,2.4578,2.4579,0,2.4131,2.4134,2.4173,2.4214,2.4246,2.4278,2.4309,2.4331,2.4339,2.4371,2.4418,2.4445,2.45,2.4544,2.4585,2.4602,2.4592,2.4592,2.4604,2.4603,2.4598,2.46,2.4462,2.4588,2.4587,2.4586,2.4586,2.4586,2.4206,2.4241,2.4271,2.4315,2.4339,2.4368,2.4403,2.4418,2.4457,2.4502,2.4502,2.4553,2.4583,2.4637,2.4656,2.4696,2.4681,2.4698,2.4702,2.4706,2.471,2.4593,2.4703,2.4703,2.4703,2.4703,2.4703,0,2.431,2.4329,2.4369,2.4412,2.4446,2.4435,2.4468,2.4498,2.4543,2.4571,2.4607,2.466,2.4703,2.4723,2.4766,2.4793,2.479,2.4804,2.4801,2.4805,2.4721,2.4706,2.4806,2.4806,2.4806,2.4806,2.4806,2.4806,2.4368,2.4428,2.4435,2.4506,2.4525,2.4575,2.4595,2.4622,2.4644,2.4705,2.4741,2.4754,2.4779,2.4823,2.4862,2.4867,2.4882,2.4899,2.4901,2.4822,2.4811,2.4801,2.4787,2.4902,2.4902,2.4982,2.4982,2.4983]}]]